Terug naar catalogus

COSMOS 620

ActiefMilitairLEO
NORAD 6988·PAYLOAD·🇷🇺 Russia

Gelanceerd Dec 19, 1973 vanaf Plesetsk Cosmodrome

Loading…

Volgende Passages (komende 24 uur)

TLE

VersSource: Space-Track

Epoch: Sep 14, 2026, 13:47 UTC

1 06988U 73104D   26257.57436523  .00000005  00000-0  13770-3 0  9999
2 06988  74.0330 338.7769 0021726 158.2189 265.7324 12.47312265401305

Volg COSMOS 620 in realtime met AllMySat

Download on the App Store